P/2008 CL94 ( Lemmon )

Japanese version
Home page
Updated on August 29, 2010

---------------------------------------------------------------------

* Profile

Discovery Date February 8, 2008
Magnitude 20.8 mag
Discoverer Mt. Lemmon survey

* Orbital Elements

The following orbital elements are taken from MPC 65645:

Epoch 2006 July 4.0 TT = JDT 2453920.5
T 2006 July  9.4596 TT                                  MPC
q   5.436743             (2000.0)            P               Q
n   0.0640942      Peri.   82.6721      -0.4359186      -0.8964090
a   6.183822       Node    33.5414      +0.7578612      -0.4136597
e   0.120812       Incl.    8.3418      +0.4854085      -0.1591746
P  15.4
From 50 observations 2008 Feb. 8-2009 Mar. 30.

* Magnitudes Graph

        H = 12.0  G = 0.15

---------------------------------------------------------------------

The orbital elements are published at the MPC Ephemerides and Orbital Elements.
The magnitudes graphs are made with Comet for Windows.

---------------------------------------------------------------------

Copyright(C) Seiichi Yoshida (comet@aerith.net). All rights reserved.